Theta_e
303 303 302 303 303 302 302 302 302 302 302 303 303 304 307 311 313 312 309 308 309 308 307 307 307 306 307 310 312 315 319 320 321 322 322 322 322 322 322 322 322 321 320 319 318 317 316 315 313 311 309 308 308 308 307 307 307 307 308 309 310 310 311 313 317 321 323 324 325 326 327 326 326 326
303 303 303 303 303 303 304 303 303 303 303 302 302 302 303 306 310 312 310 307 306 306 306 306 306 305 305 305 305 307 310 313 315 316 318 318 319 319 319 319 318 318 317 315 313 312 310 309 308 306 305 305 305 306 306 307 307 307 308 308 308 308 307 307 311 317 321 323 323 324 325 325 326 326
305 305 305 304 304 304 305 305 304 304 304 303 303 303 303 304 307 310 309 307 305 305 305 305 305 305 305 305 304 304 305 305 306 307 308 310 311 311 311 311 311 310 310 309 307 306 306 306 306 306 306 306 306 306 307 307 308 308 308 309 310 310 309 308 308 314 319 322 322 323 323 324 325 326
307 307 306 306 306 306 306 306 306 306 305 305 305 305 305 305 306 307 307 306 306 305 306 305 305 306 306 306 306 305 305 305 305 305 305 305 305 305 305 305 305 304 304 304 304 304 304 305 306 306 306 307 306 307 307 307 307 307 308 308 310 311 311 310 309 311 316 320 322 322 323 323 323 323
307 307 307 306 306 306 306 306 306 306 306 306 307 307 307 306 306 306 306 306 305 305 305 305 305 305 306 306 307 307 307 307 307 306 306 305 305 304 304 304 304 304 304 304 304 304 304 305 305 306 306 307 307 307 307 306 306 306 306 307 308 310 311 311 311 311 312 316 319 320 322 323 322 323
308 307 307 306 306 306 306 306 306 306 306 306 306 306 306 307 306 306 306 306 305 305 304 305 305 305 305 306 306 307 307 308 308 307 306 306 305 305 304 304 303 303 304 304 304 305 305 305 306 306 306 306 307 306 307 307 307 307 307 307 307 308 309 310 312 312 313 314 315 316 317 318 319 320
310 309 309 308 308 307 307 306 306 306 306 306 306 306 306 306 306 306 306 306 306 306 306 306 305 305 305 305 306 306 306 306 307 307 307 306 306 305 305 304 304 303 303 303 303 304 304 305 305 305 306 306 306 307 307 307 307 308 308 307 307 307 308 309 310 311 313 314 314 314 313 313 314 315
314 312 312 311 310 310 309 309 308 308 306 306 306 306 307 307 308 308 309 309 309 309 310 309 309 308 308 307 306 305 305 305 305 306 307 307 306 306 306 305 305 305 304 304 303 303 302 302 302 303 303 304 304 305 305 305 306 306 306 306 305 305 305 306 307 309 310 312 313 314 313 312 311 311
317 316 314 313 313 313 313 313 312 311 309 308 308 308 309 310 311 312 312 312 312 312 312 312 311 311 310 310 308 307 307 306 306 306 307 307 307 307 307 306 306 306 306 305 304 304 303 302 301 301 301 301 301 301 302 302 303 303 303 303 303 302 302 302 303 305 306 308 310 312 312 312 311 310
318 318 317 316 315 315 315 315 315 314 312 311 312 312 312 312 313 313 313 312 312 311 311 311 311 311 311 311 310 309 308 308 307 307 307 308 308 308 308 307 307 307 306 306 305 304 304 303 302 302 301 301 301 300 300 300 300 300 300 300 300 301 302 302 303 303 303 305 306 308 309 310 310 310
317 317 317 317 317 316 316 316 316 316 315 315 315 315 314 314 313 313 313 312 311 311 311 310 310 309 310 310 310 309 309 308 308 308 308 308 308 308 308 308 307 307 306 306 305 305 304 303 302 302 301 301 301 301 301 300 300 300 299 300 300 301 302 303 304 304 304 304 305 306 307 308 308 308
315 316 317 317 317 317 317 316 316 316 316 315 314 314 315 314 313 313 313 312 311 311 311 310 309 309 309 308 308 308 308 308 309 308 308 308 308 308 308 307 307 307 306 306 305 305 304 304 303 302 301 301 300 300 300 300 300 300 300 300 300 300 301 302 304 305 305 305 305 305 305 305 306 306
316 317 317 318 318 318 317 317 316 316 315 315 314 314 314 313 313 313 313 312 311 311 311 310 309 309 308 308 307 306 306 307 308 308 308 308 307 307 307 307 306 306 305 305 305 305 304 304 304 303 302 301 300 300 300 300 300 300 300 300 300 299 299 300 301 303 304 305 306 306 306 305 305 305
318 318 319 319 319 318 318 317 317 316 315 315 315 314 313 312 312 311 312 312 312 311 311 310 309 309 308 307 307 306 305 305 306 307 307 307 307 306 306 306 306 305 304 304 304 305 304 303 304 304 303 301 300 299 299 299 299 299 299 300 300 299 299 299 299 299 300 301 302 304 305 304 303 302
319 319 319 319 319 319 318 318 317 316 316 315 315 314 314 313 311 311 311 311 311 311 311 310 309 309 308 308 307 306 305 305 305 306 306 306 306 305 304 304 304 303 302 301 302 304 303 302 302 303 302 301 300 299 299 299 299 299 299 299 299 299 299 299 299 299 299 299 299 300 301 301 300 300
318 318 318 318 318 318 319 318 318 317 316 315 314 314 313 313 312 311 311 310 311 311 311 310 309 309 308 307 306 305 305 305 305 305 305 305 305 304 302 301 301 301 299 299 300 301 301 300 300 300 300 299 299 299 298 299 298 298 298 298 298 299 299 299 299 299 299 299 299 300 300 300 300 300
313 313 313 314 315 316 317 318 318 318 317 316 315 314 313 313 312 311 310 310 310 310 309 309 309 308 307 306 305 305 305 305 305 304 304 304 303 302 300 299 299 298 297 296 297 298 299 298 298 299 299 298 298 298 298 298 298 298 298 298 298 298 298 299 299 299 299 299 299 300 300 300 300 300
311 311 311 311 312 313 315 316 317 317 317 316 314 313 313 313 311 310 310 310 310 309 309 308 307 306 305 305 304 304 304 304 303 303 303 303 302 300 297 296 296 296 296 295 295 296 297 297 297 297 298 298 298 298 298 298 297 297 297 297 297 297 298 298 298 298 299 299 299 300 300 300 300 300
311 311 310 310 310 311 313 315 316 316 316 315 314 313 313 312 311 310 310 309 309 309 308 307 306 304 304 304 304 304 303 303 302 301 300 299 298 296 295 295 295 295 295 295 294 295 296 296 296 296 297 297 297 297 297 297 297 297 297 297 297 297 297 297 297 298 298 299 299 300 300 301 301 301
312 312 311 310 311 312 313 314 315 315 314 313 313 313 312 311 311 310 309 308 308 308 306 305 304 303 303 304 303 303 303 301 300 299 297 296 294 294 294 294 294 295 295 295 294 294 295 295 295 295 296 296 297 297 297 297 297 296 296 296 296 296 296 297 297 297 298 299 299 300 300 301 302 302
312 312 312 311 311 312 313 313 313 313 313 312 311 311 311 310 309 308 308 308 307 306 304 304 303 303 303 303 303 302 301 300 298 296 294 294 293 293 294 294 294 294 294 294 294 294 294 294 294 294 295 295 296 296 296 296 296 296 296 296 296 296 296 296 296 297 297 298 299 299 300 302 304 304
312 312 312 311 311 311 312 313 312 311 311 310 310 310 309 309 308 307 307 307 305 304 304 303 303 302 302 302 301 300 298 296 295 294 293 293 293 293 293 293 293 294 293 294 293 293 293 293 293 293 293 294 295 295 295 295 295 295 296 296 296 296 296 296 296 296 296 297 297 298 300 302 303 304
311 311 311 310 310 310 310 310 310 310 309 309 309 308 308 308 307 307 306 305 304 303 303 302 302 302 301 301 299 297 295 294 293 293 293 293 293 293 293 292 292 292 292 292 292 292 292 292 292 292 292 293 294 294 294 294 294 294 294 294 295 295 295 295 295 295 295 296 296 297 299 300 302 303
310 310 309 309 309 309 308 308 309 309 309 308 308 307 307 306 306 305 304 303 303 302 302 302 302 301 300 298 295 294 293 293 293 293 293 293 292 292 292 291 291 291 291 291 291 290 290 291 291 291 290 291 292 293 293 293 293 293 293 293 293 293 293 294 294 294 294 295 295 296 297 299 301 302
308 308 308 308 307 307 307 307 308 307 307 307 306 306 306 306 305 304 304 303 302 302 301 301 300 298 296 294 293 293 293 293 293 293 293 292 292 291 291 290 290 290 290 290 290 290 290 290 290 290 290 290 291 291 291 292 292 292 292 292 293 293 293 293 293 293 294 294 294 295 296 298 300 301
307 307 307 307 307 307 307 306 306 306 306 306 306 305 305 304 304 303 302 302 301 300 299 298 296 294 293 293 293 293 293 293 293 292 292 292 291 291 290 290 290 289 290 290 289 289 289 289 289 289 289 289 290 290 291 291 291 291 291 291 292 292 292 292 292 293 293 293 294 294 295 296 298 300
307 306 306 306 306 306 306 305 306 305 305 305 304 304 303 303 302 301 301 299 298 297 295 294 293 293 293 293 293 293 293 292 292 292 291 291 291 290 290 290 290 289 289 290 289 289 289 289 289 289 288 289 289 290 290 291 291 291 291 291 291 291 291 292 292 292 293 293 293 294 295 295 297 298
306 306 305 305 304 304 304 304 304 304 304 304 303 302 302 301 300 298 297 295 294 294 293 293 293 293 293 293 292 292 292 292 291 291 291 291 291 291 290 290 290 290 290 290 290 290 289 289 289 288 288 289 289 289 290 290 290 291 291 291 291 291 291 291 292 292 292 293 293 294 295 295 296 297
305 304 304 303 303 302 302 303 303 303 303 302 301 299 298 297 295 294 293 293 293 293 293 293 293 293 293 292 292 292 292 291 291 291 291 291 291 291 291 291 290 291 291 291 290 290 290 289 289 288 288 288 289 289 289 290 290 290 291 291 291 291 292 292 292 292 293 293 294 294 295 296 296 297
304 303 302 302 301 301 301 301 301 300 298 297 296 294 294 293 293 293 293 293 293 293 293 293 293 292 292 292 292 291 291 291 291 291 291 291 291 291 291 291 291 291 291 291 291 290 290 290 289 289 288 288 288 289 289 289 289 290 290 290 291 291 292 292 292 293 293 293 293 293 294 295 296 296
303 302 302 301 301 300 299 298 296 295 294 293 293 293 292 293 293 293 293 293 293 292 292 292 292 292 291 291 291 291 291 291 291 291 291 291 291 291 291 290 291 291 291 291 291 291 290 290 289 289 289 288 288 289 289 289 289 289 290 290 290 290 291 292 292 292 293 293 293 293 293 294 295 296
302 302 301 299 298 296 295 293 293 292 292 292 292 293 293 293 293 293 293 292 292 292 292 291 291 291 291 291 291 291 291 291 291 291 291 290 290 290 290 289 290 290 291 291 292 291 290 290 289 289 289 288 288 288 289 289 289 289 289 290 290 290 291 291 291 292 292 293 293 293 294 294 295 295
300 299 297 295 293 293 292 292 292 292 293 293 293 293 293 293 293 293 292 292 292 292 292 292 292 292 291 291 291 291 291 291 291 290 290 290 290 289 288 288 288 288 289 290 291 291 290 290 290 289 289 289 289 288 288 288 289 289 289 290 290 290 291 291 291 292 292 292 293 293 293 294 294 295
297 295 293 292 292 292 292 292 292 293 293 293 293 293 293 293 292 292 292 292 292 292 292 292 292 292 291 291 291 290 290 290 290 289 289 289 288 288 288 287 288 288 288 289 290 290 290 290 290 289 289 289 289 289 289 289 289 290 290 290 290 290 291 291 291 291 292 292 292 292 293 293 294 294
294 293 292 292 292 292 292 292 293 293 293 293 293 293 293 292 292 292 292 292 292 292 292 292 292 291 291 290 290 290 289 289 289 289 289 288 288 288 288 288 288 288 288 289 290 290 290 290 289 289 289 289 289 289 290 290 290 290 290 290 290 291 291 291 291 291 291 292 292 292 293 293 294 294
293 292 292 292 292 292 293 293 293 293 293 293 293 293 293 292 291 291 291 291 291 291 291 291 291 291 290 290 290 290 289 289 289 289 289 289 289 289 289 289 289 289 289 289 290 290 290 290 289 289 289 289 288 289 290 290 290 290 290 290 290 291 291 292 292 292 292 292 292 292 293 294 294 295
292 292 292 292 292 293 293 293 293 293 293 293 293 292 292 292 291 291 291 291 291 291 291 291 291 290 290 290 290 290 290 290 290 290 290 290 290 290 289 289 290 290 290 290 290 290 290 290 289 289 289 289 289 289 289 290 290 290 290 290 290 291 291 292 292 292 292 292 293 293 294 294 295 295
292 292 292 293 293 293 293 293 293 293 292 293 293 292 292 292 291 291 291 291 291 291 291 291 290 290 290 290 290 290 290 290 290 290 290 290 290 290 290 290 290 290 290 290 291 291 291 290 290 290 290 289 289 289 289 290 290 290 290 290 290 291 291 291 292 292 293 293 293 294 294 295 295 296
292 292 293 293 293 293 293 293 292 292 292 292 292 292 292 291 291 291 290 290 290 290 290 290 290 290 290 290 290 290 290 290 290 290 290 290 290 290 290 290 290 290 290 290 291 291 291 291 291 291 290 289 289 289 289 289 290 290 290 290 290 290 291 291 292 292 293 293 294 294 295 295 296 296
293 293 292 293 293 293 293 292 292 292 292 292 292 291 291 291 291 290 290 290 290 290 290 290 290 291 291 291 290 290 290 290 290 290 290 290 291 291 291 291 290 291 291 291 291 291 291 291 291 291 290 290 290 290 289 289 290 291 291 290 290 290 291 291 292 292 293 293 294 294 295 295 296 296
292 292 292 293 293 292 292 292 292 292 291 291 291 291 291 291 291 290 290 290 289 289 290 290 290 291 291 291 290 290 290 290 290 290 290 291 291 291 291 291 291 291 291 291 291 292 292 291 291 291 290 290 290 290 290 290 290 291 291 291 291 291 291 291 292 292 293 293 294 294 294 295 295 295
292 292 293 292 292 292 292 291 291 291 291 291 290 290 290 291 290 290 290 289 289 289 289 290 290 290 291 290 290 290 290 290 290 290 291 291 291 291 291 291 291 291 291 291 291 292 292 292 292 292 291 291 291 290 290 290 291 291 291 291 291 291 291 292 292 292 293 293 294 294 294 294 295 295
292 292 292 292 292 292 291 291 291 291 290 290 290 290 290 290 290 290 289 289 289 289 289 290 290 290 290 290 290 290 290 290 290 290 291 291 291 291 291 292 292 292 292 292 292 292 292 292 292 292 292 292 291 291 291 291 291 291 291 291 291 292 292 292 292 292 293 294 294 294 294 294 294 294
292 292 292 292 292 291 291 291 291 290 290 290 289 289 289 290 290 290 290 289 289 289 290 289 289 290 290 290 290 290 290 290 290 291 291 291 291 292 292 292 292 292 292 292 292 292 292 292 292 292 292 292 292 291 291 291 291 291 291 291 291 292 292 292 293 293 294 294 294 294 294 294 294 294
292 292 292 292 291 291 291 291 290 290 290 290 289 288 288 289 290 290 290 289 289 290 290 290 290 289 290 290 290 290 290 290 290 291 291 291 292 292 292 292 292 292 293 293 293 293 293 293 292 292 292 292 292 292 291 291 291 291 291 291 292 292 292 293 293 293 294 294 294 294 294 294 294 294
Wind_Speed
8 7 7 7 8 8 8 8 8 7 6 5 4 4 6 9 10 11 11 9 8 6 4 3 3 3 2 1 1 1 2 3 5 5 7 8 9 11 12 13 13 14 15 16 16 17 17 18 18 19 19 19 19 18 18 19 19 19 19 20 20 20 20 20 20 19 20 21 21 23 27 27 25 24
7 8 7 7 7 8 9 9 9 8 8 7 6 5 4 5 8 10 10 9 7 5 4 3 2 2 2 2 2 2 4 5 6 8 9 10 12 13 14 15 16 17 18 18 19 18 18 18 18 17 17 17 17 17 17 17 17 17 17 17 17 17 18 20 20 19 20 21 21 22 24 26 27 28
7 7 7 6 6 7 7 8 8 8 8 8 8 8 7 6 7 9 9 9 7 5 4 3 3 2 2 3 3 4 5 5 7 8 10 11 13 15 16 17 18 18 19 19 19 18 17 16 16 15 15 16 16 17 17 17 17 17 17 16 15 15 15 16 18 19 19 20 21 21 23 24 25 27
5 5 5 5 5 5 5 6 7 7 7 7 8 8 8 8 9 8 7 7 7 5 4 3 3 3 3 3 3 4 5 6 6 7 8 9 11 12 14 15 15 16 17 17 17 17 16 16 15 15 16 16 17 17 18 18 18 18 18 17 16 15 14 15 16 18 19 20 21 21 22 23 23 25
2 2 3 3 3 3 4 4 4 5 5 5 5 5 5 6 7 7 6 6 5 4 4 3 4 5 5 5 5 4 4 5 6 7 8 8 9 10 11 12 13 14 14 15 16 16 16 16 16 16 16 17 17 18 18 18 18 18 18 18 17 16 15 15 15 17 19 20 21 21 22 22 23 23
1 1 0 0 1 1 1 1 2 3 3 2 2 2 2 2 2 3 3 3 3 4 4 5 6 7 7 8 8 8 8 8 8 9 9 9 9 10 11 12 12 13 13 14 15 15 16 16 17 17 17 17 17 17 18 18 18 18 18 17 18 18 17 17 17 17 18 20 21 22 22 23 23 23
4 3 2 2 2 2 2 1 2 2 2 2 2 2 2 3 3 3 3 3 4 6 7 7 9 10 10 11 11 11 11 11 11 12 11 11 11 11 11 12 13 13 14 15 15 16 16 17 18 18 18 19 19 19 19 19 19 19 19 18 18 18 18 19 19 19 20 21 22 23 24 24 24 24
5 5 5 4 4 4 3 3 3 3 3 4 4 4 5 5 5 5 6 7 9 10 11 12 12 13 14 14 14 14 14 14 14 14 14 13 13 13 13 13 14 14 15 16 17 17 18 18 19 20 21 21 21 22 22 22 22 22 22 22 22 22 21 21 22 23 23 23 24 25 25 26 26 26
8 7 6 6 6 5 5 5 4 4 4 5 6 7 7 6 7 9 11 13 14 15 15 15 15 16 16 16 17 17 16 16 16 15 15 15 15 14 14 14 15 16 16 17 17 18 18 19 20 21 22 23 23 24 24 25 25 26 26 27 27 26 26 25 25 25 26 26 27 27 27 27 27 27
12 11 10 9 8 7 6 6 6 6 6 7 8 10 10 10 10 12 15 16 16 15 15 15 17 17 17 17 17 18 18 19 19 18 17 16 16 16 16 16 17 18 18 18 19 19 20 20 21 21 22 23 24 24 25 25 26 26 27 28 28 27 26 26 26 26 27 27 28 28 28 28 28 28
12 11 11 11 11 10 8 7 8 8 8 8 9 10 11 12 12 13 15 16 15 14 15 16 17 18 18 19 19 20 20 20 20 21 21 20 19 18 18 19 20 20 21 21 21 21 22 21 21 21 22 23 24 25 25 26 26 26 26 27 27 27 27 26 26 26 26 27 28 29 29 29 29 28
13 12 14 14 14 14 13 11 11 11 11 10 10 9 10 12 13 13 15 14 11 11 14 15 16 17 19 21 22 23 23 22 22 22 23 23 23 22 21 22 23 24 24 24 24 23 23 23 23 23 23 23 24 25 25 26 26 26 27 28 28 28 28 28 27 26 27 27 28 29 29 29 29 28
17 17 17 16 16 16 16 15 15 14 14 13 13 12 12 13 13 14 14 13 11 12 13 14 15 16 18 22 24 24 24 24 24 24 24 25 26 26 24 24 24 26 27 27 27 26 26 26 25 25 25 25 25 26 25 25 26 26 27 29 29 30 30 30 30 29 29 29 29 30 29 29 28 29
18 18 17 16 16 16 17 18 19 18 17 17 16 16 16 17 16 14 14 14 13 14 15 16 17 18 20 23 25 25 25 25 25 26 26 27 28 29 28 27 25 26 29 30 30 28 28 30 29 28 28 27 27 27 26 26 26 26 27 28 28 29 30 30 31 32 32 33 33 33 33 33 33 33
17 17 16 16 16 16 17 19 20 20 20 20 19 19 20 20 19 18 17 17 16 16 17 18 19 20 22 24 25 25 25 25 26 27 28 29 30 31 32 32 29 28 30 33 33 30 28 31 32 31 30 30 29 28 26 26 26 26 27 27 27 28 29 29 30 31 32 33 34 35 36 37 37 37
14 14 14 14 15 15 16 18 19 20 21 21 22 23 23 23 22 22 21 20 18 17 17 18 20 21 22 24 25 25 26 26 28 29 30 31 32 33 34 35 33 30 31 35 36 32 29 30 32 31 30 31 31 30 28 27 26 26 26 26 26 27 28 28 28 29 30 31 32 33 34 34 35 35
12 12 13 13 13 14 15 17 18 19 19 21 24 26 25 24 23 23 22 21 19 18 18 19 20 21 22 24 25 26 27 28 29 31 32 32 34 35 35 36 35 32 32 35 37 35 29 29 32 32 29 31 32 31 30 29 27 25 25 25 25 25 26 27 27 28 29 29 30 31 31 32 32 32
11 12 13 13 13 14 15 15 17 17 17 19 23 25 25 24 24 23 23 22 21 20 20 21 21 22 23 25 27 28 28 30 31 33 34 35 36 37 37 37 36 33 32 34 37 37 31 29 33 33 30 30 31 31 30 30 27 26 25 24 24 24 25 26 26 27 28 28 29 29 29 30 30 30
12 12 12 13 13 14 14 14 15 15 15 18 21 24 25 24 24 23 23 22 21 21 22 22 22 24 25 27 28 30 31 32 33 34 35 35 36 38 38 37 36 34 32 31 34 37 35 31 32 33 30 29 30 29 30 30 28 26 24 23 23 23 24 25 25 25 26 27 28 27 27 27 28 28
13 12 13 13 13 13 13 13 13 13 13 17 20 22 23 24 24 24 22 21 21 21 22 23 24 26 28 29 30 32 33 34 35 35 35 35 35 36 37 37 36 34 33 31 32 36 36 32 31 32 31 30 30 29 28 29 28 26 23 22 22 22 23 24 23 23 24 25 26 26 25 25 25 26
13 13 13 12 11 11 11 11 11 11 13 16 20 21 22 23 23 23 21 21 22 22 23 25 26 28 30 31 33 34 35 35 35 35 35 34 34 35 36 37 37 36 34 32 31 33 34 31 32 34 34 33 32 30 28 26 25 22 20 20 21 21 21 22 22 22 22 23 24 24 23 22 22 23
13 12 12 11 10 9 9 10 10 11 14 17 20 21 22 22 21 21 21 22 22 24 25 27 28 30 31 33 34 34 34 33 33 33 34 33 34 35 36 36 37 37 35 30 28 30 33 32 32 34 35 36 35 31 27 24 21 20 19 20 21 21 21 22 22 22 21 22 22 22 21 20 20 20
12 11 11 11 10 10 10 10 11 13 16 18 20 21 21 20 20 20 21 22 23 25 27 28 30 31 32 34 34 33 32 31 31 32 32 32 33 34 34 33 33 34 33 29 27 31 34 33 33 32 33 34 34 31 28 26 25 23 22 23 23 23 23 23 23 22 21 20 21 22 22 21 20 19
10 11 11 11 11 11 11 12 13 15 18 19 20 19 19 19 20 21 23 24 26 27 29 30 31 32 33 33 33 32 32 31 31 31 31 31 31 31 31 30 29 31 32 29 27 30 33 33 33 32 29 29 31 31 31 30 29 27 26 24 24 23 22 21 22 22 21 20 19 20 22 23 22 21
10 10 11 12 12 13 13 15 16 17 18 18 18 18 18 20 22 24 26 27 28 29 30 31 32 33 33 33 32 32 32 32 32 32 31 30 29 28 29 29 29 32 33 29 26 28 31 32 33 33 31 29 29 30 30 28 27 27 27 24 21 20 20 20 21 22 22 20 19 19 20 22 24 24
10 11 12 12 14 14 15 15 16 16 17 18 18 19 21 23 24 25 27 28 29 30 31 32 33 33 33 33 33 33 32 31 30 30 29 27 27 26 27 28 30 33 33 31 27 28 31 32 32 32 31 30 30 30 29 28 26 25 26 24 21 20 20 20 22 22 21 19 18 18 19 21 24 25
9 10 11 12 13 14 15 15 16 17 19 20 21 22 23 24 25 26 27 28 30 31 32 33 33 33 33 33 33 31 30 29 28 28 27 26 26 27 27 28 30 32 33 31 29 28 30 32 32 31 31 31 31 31 30 28 25 24 25 25 24 23 22 21 21 21 20 18 17 16 17 19 22 25
10 11 11 12 14 15 16 18 19 20 22 22 23 23 24 25 26 27 28 29 30 31 32 32 32 31 31 30 30 30 29 29 29 29 29 29 29 29 30 30 31 32 32 31 30 29 30 32 32 31 31 30 30 31 30 28 26 25 25 26 27 26 24 21 21 21 19 17 16 16 17 17 19 22
11 11 12 14 15 16 17 18 20 21 21 22 22 23 24 24 25 26 28 28 29 30 29 29 29 29 29 29 30 30 31 31 31 31 31 31 31 30 31 31 31 30 30 29 29 29 30 31 32 32 32 30 30 30 30 30 29 27 26 28 30 28 24 21 21 21 18 16 15 15 17 18 18 19
12 12 12 14 15 15 16 17 18 19 19 20 21 21 22 24 25 26 26 27 27 27 28 28 29 29 30 30 31 31 32 32 31 31 31 31 30 29 29 30 30 29 27 27 27 27 28 29 29 29 29 28 29 29 30 30 30 29 29 31 32 30 26 22 21 19 18 18 18 18 19 19 19 20
12 12 12 13 14 15 15 16 17 17 18 18 20 21 22 22 23 23 24 25 25 27 28 29 29 30 30 31 30 31 31 30 29 28 29 29 29 28 28 28 29 28 26 24 24 24 23 23 22 22 23 24 25 27 27 27 28 29 30 30 29 29 27 25 23 22 21 21 21 21 20 19 18 20
12 12 13 14 14 14 15 15 16 16 17 18 19 20 20 20 21 21 22 23 24 25 26 27 28 28 29 29 29 29 29 28 27 27 27 27 27 26 25 26 28 28 26 24 21 19 18 17 17 17 18 20 22 23 23 25 26 27 28 28 28 28 27 27 26 25 23 23 24 23 21 19 18 19
12 13 13 13 13 13 14 14 15 16 16 17 17 18 18 19 20 21 22 22 23 23 24 25 26 27 28 28 28 28 28 28 26 26 25 25 25 24 24 25 26 27 26 25 21 18 17 17 16 17 18 19 20 21 22 24 26 26 27 28 28 27 26 26 26 25 24 25 26 25 23 22 20 19
12 11 11 11 12 12 13 14 14 15 15 16 16 17 18 18 19 20 21 22 23 23 24 24 25 27 27 28 27 27 27 27 26 25 25 24 24 25 25 26 27 27 27 26 24 21 20 20 19 18 19 19 20 20 20 23 26 27 27 27 27 26 26 25 25 24 24 24 25 25 25 23 20 18
10 9 10 10 11 12 12 13 13 14 15 15 16 17 17 17 18 19 21 22 23 23 24 24 25 26 27 26 26 25 25 26 26 26 25 25 25 25 25 26 27 27 26 27 26 23 22 21 20 19 19 19 20 21 20 19 21 23 22 21 21 21 20 19 19 19 19 20 21 22 23 22 19 16
9 9 9 10 10 10 11 12 13 14 14 15 16 17 17 17 17 19 20 22 23 23 23 24 25 25 25 24 24 24 24 25 25 25 25 25 25 25 25 25 26 27 26 26 26 23 22 21 20 19 20 20 20 22 22 19 17 18 18 18 17 16 15 14 13 13 15 16 16 18 19 19 16 12
8 8 8 8 9 10 10 11 12 13 15 16 16 16 16 17 18 18 19 20 21 22 23 23 24 24 24 23 23 23 23 23 24 25 25 25 25 25 25 25 26 26 26 26 25 23 22 21 19 18 20 21 20 22 24 22 18 16 16 15 14 13 12 12 12 12 13 14 15 17 17 14 12 10
7 6 6 7 8 9 9 10 12 14 15 16 16 16 16 16 17 16 17 19 21 22 23 24 24 24 24 23 23 23 23 23 24 25 25 25 25 25 25 25 26 26 25 25 24 22 21 21 20 18 19 21 21 22 22 21 19 16 14 13 13 13 12 12 12 12 12 12 13 13 13 11 10 10
4 4 5 6 7 7 9 10 13 14 15 15 16 16 16 16 16 16 17 19 20 23 24 24 24 24 23 23 22 22 22 23 23 24 24 24 23 24 24 24 24 24 25 25 24 23 22 20 19 18 18 19 20 20 19 19 19 18 15 14 15 15 13 13 13 11 10 10 10 8 8 10 10 10
3 3 4 5 6 7 9 11 12 13 14 15 16 16 17 17 17 18 19 19 21 23 25 25 24 23 23 23 22 22 23 23 23 23 22 22 23 23 23 23 23 23 24 24 24 23 21 19 17 16 16 17 17 16 15 17 19 20 17 14 13 14 14 15 15 13 11 10 9 5 4 7 8 9
3 3 3 4 5 7 9 11 12 13 14 15 16 17 18 18 18 19 19 19 20 22 24 24 24 23 23 23 22 22 23 23 23 22 22 22 22 22 22 22 22 22 22 23 23 22 19 16 15 15 15 15 15 15 16 17 19 20 17 12 10 11 13 15 16 15 12 10 7 4 3 4 7 7
2 2 2 3 5 7 9 11 12 12 14 15 17 19 20 20 19 18 17 17 18 21 23 24 24 23 23 23 23 22 22 22 22 21 21 22 22 22 21 21 21 21 21 22 22 20 17 15 14 14 14 14 15 16 17 18 19 19 16 11 8 9 10 12 14 13 12 9 5 2 2 3 4 6
2 2 2 4 6 7 9 10 11 12 14 15 18 20 21 21 21 19 19 19 19 21 23 24 25 24 23 23 22 22 21 21 21 21 21 21 21 21 22 21 21 21 20 20 20 19 16 15 14 13 14 14 15 16 17 17 17 16 13 10 7 7 7 8 9 8 9 8 4 3 1 2 1 2
2 1 2 4 6 7 9 10 11 12 14 16 18 19 21 22 22 21 21 21 21 21 23 25 25 25 24 23 23 23 22 21 20 21 21 20 20 20 21 22 21 21 19 19 19 17 15 14 13 12 13 13 13 13 14 14 14 12 9 7 6 4 4 5 5 6 6 6 5 6 4 2 1 1
2 1 2 4 6 7 9 10 11 13 14 15 17 19 20 21 22 22 22 23 22 22 23 25 26 26 25 24 23 23 23 22 21 21 20 20 20 20 20 21 20 20 18 18 17 17 15 13 11 11 11 11 11 10 11 11 10 8 6 5 4 3 2 3 6 7 7 7 7 6 4 3 2 2
Wind_Direction
70 67 67 72 75 74 73 73 73 72 72 78 93 141 175 182 172 149 132 123 120 121 118 103 86 77 74 92 130 215 245 264 270 270 273 276 278 281 285 286 287 288 289 290 291 291 289 288 287 285 282 281 280 280 280 280 280 279 277 277 274 270 269 269 268 263 258 255 250 249 254 259 265 270
72 69 67 69 72 72 71 69 69 69 70 74 77 85 116 166 184 175 152 130 118 118 119 110 86 66 35 9 337 291 272 270 273 274 276 278 280 281 283 284 286 287 288 290 291 292 293 292 290 288 285 283 282 281 280 281 282 282 283 283 282 277 271 266 266 266 263 259 255 249 248 252 259 266
77 74 71 69 68 70 71 67 64 62 66 75 82 86 90 111 150 174 171 146 123 110 103 89 59 36 28 15 349 325 309 297 291 290 287 286 286 286 287 288 288 288 289 289 289 290 291 291 290 289 289 287 285 284 283 283 283 283 283 283 282 282 277 269 264 262 262 261 259 254 251 249 249 254
83 82 81 76 68 62 62 64 63 58 60 68 75 83 88 97 115 137 155 143 120 96 74 58 31 15 14 7 346 333 330 322 315 310 305 303 301 299 298 296 295 294 293 292 292 292 292 291 290 289 288 288 288 287 286 286 286 286 285 283 280 278 277 274 267 262 259 260 260 258 255 252 248 247
68 73 82 83 74 60 48 49 56 55 57 59 59 68 77 84 97 107 117 118 101 65 36 14 356 350 345 338 329 322 323 323 321 321 319 316 313 311 309 306 304 303 301 298 297 296 295 293 291 290 289 288 288 289 289 289 290 288 286 283 279 275 272 270 269 266 261 258 258 258 257 256 254 252
314 328 323 182 147 115 61 31 34 40 41 43 43 36 35 45 58 65 76 86 57 12 356 343 335 330 324 322 320 315 313 315 318 322 322 319 317 316 314 313 310 307 305 303 300 298 296 295 293 292 291 290 289 289 289 290 290 290 289 285 281 276 271 267 265 263 261 259 258 258 257 256 256 254
307 304 295 281 273 265 260 274 308 336 340 329 319 310 316 329 334 335 338 343 342 340 338 331 325 321 317 316 317 316 317 317 318 318 318 319 320 319 318 316 313 311 308 305 303 300 298 296 295 295 294 293 292 291 290 289 288 288 288 288 285 280 275 270 266 262 260 259 258 258 259 258 257 256
306 304 301 300 295 289 290 292 296 299 296 293 296 303 314 319 320 322 325 327 328 330 330 327 323 323 321 319 317 316 315 314 314 314 314 316 317 317 318 316 314 312 310 308 306 304 301 299 297 295 294 293 292 290 289 288 287 286 286 287 286 284 280 274 270 265 262 260 259 259 260 260 260 260
293 291 290 293 293 292 295 301 304 300 290 293 302 309 312 308 310 316 320 322 321 317 314 314 317 319 320 319 316 313 311 309 308 309 309 311 311 310 311 311 309 308 307 306 305 303 302 300 298 296 294 292 291 289 287 286 285 285 285 285 285 285 283 279 274 270 265 262 261 260 261 262 263 262
282 281 280 280 280 281 284 295 307 306 297 303 313 316 312 303 305 313 317 321 326 323 317 316 317 317 317 318 317 314 313 311 309 307 305 305 305 305 304 303 305 306 306 306 305 305 303 301 299 297 296 294 292 290 289 287 286 285 284 285 285 284 283 280 277 274 269 265 262 261 262 262 264 265
274 277 280 277 272 270 270 277 287 288 284 287 296 303 304 300 302 310 314 319 328 332 332 332 329 325 323 323 323 320 317 315 312 309 306 302 300 301 304 305 305 306 306 306 305 305 304 302 301 298 296 295 293 292 291 290 289 288 286 284 283 283 281 279 277 275 272 268 265 263 263 263 264 266
267 273 279 275 266 262 261 257 259 265 266 263 264 271 284 289 291 298 303 307 313 316 323 331 332 331 329 327 326 322 317 312 309 309 310 309 306 305 307 309 308 306 305 304 302 301 300 299 299 298 296 294 292 291 290 290 289 288 287 284 282 281 280 279 278 275 272 270 268 266 265 265 266 267
266 273 276 271 262 258 256 253 253 258 260 258 257 259 266 270 273 278 283 287 289 296 309 321 325 327 327 326 326 323 318 313 310 309 311 312 311 309 307 308 308 307 305 302 299 299 300 298 297 296 295 294 292 290 288 288 287 285 284 282 281 281 280 278 276 274 272 270 268 267 265 264 265 267
267 271 270 265 260 257 253 250 250 253 257 260 258 258 262 265 265 268 273 278 284 293 304 313 316 318 321 322 324 325 322 317 314 312 312 312 312 311 309 307 307 309 309 304 299 298 301 300 298 296 295 294 292 290 289 288 287 284 282 281 281 280 280 278 277 275 274 272 270 267 266 265 266 268
271 271 269 266 262 257 251 249 249 249 251 257 259 258 261 262 262 265 270 275 282 291 298 305 308 311 315 317 319 321 320 316 314 314 314 314 314 314 314 311 310 312 311 306 302 299 301 301 299 296 297 296 294 293 291 289 287 284 282 281 281 280 279 278 278 277 275 274 272 271 270 270 271 271
279 279 277 274 269 262 254 253 255 252 249 252 255 256 257 259 261 263 266 271 278 286 293 300 304 306 310 313 314 316 315 314 313 313 313 314 314 314 315 313 313 314 312 308 304 302 302 302 298 296 297 298 297 297 296 293 290 287 285 283 281 280 279 278 277 276 276 275 274 273 273 273 273 273
288 289 288 283 278 271 262 256 257 257 253 250 251 252 255 259 261 262 265 271 280 287 293 298 300 302 307 311 312 313 313 311 311 311 311 312 313 313 313 311 312 314 312 310 307 304 305 304 300 298 298 298 298 299 298 297 295 292 289 286 283 280 278 278 277 277 276 276 276 275 275 273 272 271
298 299 297 292 286 279 271 262 256 255 256 253 251 251 254 257 259 262 268 276 283 290 296 300 301 304 308 311 312 312 312 311 310 310 310 311 312 312 311 311 312 313 312 311 308 306 307 306 302 300 300 297 297 298 298 297 297 296 293 289 285 282 279 277 276 276 276 276 276 277 277 276 274 272
303 305 303 296 288 280 274 266 255 250 254 258 255 253 253 256 259 264 270 277 284 292 299 302 304 307 311 312 312 311 310 309 308 308 309 311 311 309 309 309 310 311 311 310 308 306 308 308 302 300 300 297 295 295 295 296 296 296 294 290 284 281 279 277 275 273 273 274 275 276 278 278 278 276
297 303 304 299 290 282 276 271 262 253 253 257 257 255 257 259 261 265 271 278 287 296 301 305 308 310 311 311 309 308 307 306 307 308 309 310 310 308 307 307 308 308 308 309 307 305 307 309 306 303 302 300 297 296 295 295 296 296 293 288 281 278 277 277 276 273 271 270 271 272 274 276 278 278
287 294 299 302 297 287 281 279 276 268 259 256 255 255 256 258 261 267 275 284 292 299 304 306 308 308 307 305 303 303 303 304 306 307 308 309 309 307 306 307 308 308 307 308 308 306 305 308 308 305 305 303 300 298 297 295 295 293 288 280 276 275 275 277 278 278 275 273 272 270 269 271 275 277
285 288 294 301 305 305 301 293 281 267 257 252 251 253 256 261 267 276 284 292 298 301 303 304 303 302 301 300 300 300 301 303 305 305 305 306 305 304 305 306 307 307 307 309 309 306 303 305 306 305 305 304 301 301 300 295 290 286 281 276 273 273 276 279 281 280 278 276 274 271 268 267 268 272
288 291 295 300 305 308 307 295 276 262 255 253 254 257 263 270 279 287 292 295 296 296 297 297 297 297 297 297 298 299 300 301 301 301 301 302 302 303 304 305 305 304 304 308 311 305 302 303 305 306 308 306 304 303 301 296 292 288 283 281 281 281 281 282 281 281 279 278 275 271 266 264 265 267
292 296 299 300 299 297 295 287 275 265 260 259 260 264 271 280 287 291 293 292 291 291 292 293 294 294 295 296 297 298 299 299 299 300 301 302 303 303 303 303 302 298 299 305 308 303 301 302 302 303 303 301 298 299 299 297 296 294 292 290 291 292 292 288 285 283 281 279 278 273 266 261 262 264
292 294 295 295 292 288 284 279 273 267 264 264 267 273 281 286 289 289 289 288 288 290 292 293 295 295 296 297 298 298 299 299 300 301 301 302 303 302 300 299 298 295 297 302 304 300 299 300 300 300 299 294 291 293 296 297 297 299 300 299 297 298 300 299 296 293 289 283 280 277 270 261 257 259
288 289 290 289 288 285 282 279 277 275 275 276 279 283 286 288 288 288 289 290 292 294 295 296 297 298 299 299 299 300 300 301 302 302 303 304 303 300 298 295 294 293 296 299 300 297 296 296 296 297 296 293 291 291 292 294 296 299 301 301 299 298 299 299 300 300 299 293 283 279 275 265 257 255
276 279 279 280 282 284 284 283 282 284 285 286 287 287 288 290 292 293 294 295 295 296 297 298 299 300 301 301 302 303 304 305 305 306 306 305 303 300 296 293 291 291 293 295 296 294 292 292 292 292 291 291 290 289 289 290 292 294 295 295 293 292 293 295 296 298 302 300 292 284 279 271 261 258
268 271 273 277 280 282 282 282 284 287 288 289 289 290 291 293 294 295 295 296 296 297 299 300 301 302 304 305 306 308 309 309 308 308 307 305 302 299 297 294 292 291 292 294 295 292 289 287 288 289 288 287 286 285 286 287 287 288 290 290 290 292 294 293 292 295 298 297 291 282 277 272 266 262
274 277 279 280 281 281 280 281 283 284 285 286 288 291 292 293 294 295 297 298 300 302 303 304 305 306 308 309 310 311 310 310 309 309 308 305 303 301 298 296 293 292 294 294 292 289 286 285 285 286 286 284 281 281 283 284 284 284 284 284 287 293 293 287 286 291 293 292 287 282 277 273 270 267
279 284 286 286 284 282 282 283 283 285 287 289 291 293 295 297 299 301 303 304 306 306 307 308 309 311 312 311 311 311 310 310 310 310 308 306 305 303 301 298 295 294 293 291 288 286 284 283 283 284 284 283 280 279 280 281 281 281 280 281 283 286 286 284 283 284 285 287 287 284 281 278 274 270
279 284 287 288 287 286 288 289 290 291 293 294 297 299 301 304 306 307 309 310 311 312 312 312 313 314 313 312 312 312 311 310 311 311 309 307 307 307 305 302 299 297 295 291 288 286 284 284 284 284 282 281 279 279 279 279 279 279 280 280 280 280 280 280 278 274 275 280 281 279 279 280 276 270
281 284 285 286 288 290 292 293 294 296 298 301 304 306 307 309 311 313 314 315 315 314 314 314 314 314 314 313 313 313 312 312 312 311 310 309 310 310 309 307 305 305 304 300 295 293 293 294 293 289 285 282 280 279 279 277 277 278 280 281 280 280 279 279 277 272 270 273 275 276 277 277 271 266
281 283 286 288 291 293 294 296 298 301 304 306 308 310 312 315 318 319 319 318 318 317 317 317 317 318 317 317 317 316 316 316 316 315 315 316 316 316 315 314 314 314 313 311 310 311 311 309 305 299 293 287 283 281 278 277 276 277 278 280 281 281 280 280 280 276 273 273 277 280 279 275 272 269
279 282 286 288 291 293 296 299 303 305 308 311 314 317 321 324 325 325 325 324 324 323 322 323 324 325 325 324 324 323 322 322 322 322 323 323 322 320 318 316 316 316 316 315 316 319 318 314 311 305 298 292 288 283 277 274 276 280 282 282 283 283 284 285 284 282 278 276 277 279 277 275 275 272
276 280 285 287 291 295 299 303 308 312 316 321 324 327 330 332 332 331 330 330 329 329 329 329 331 331 330 328 327 326 325 324 323 324 324 323 320 319 316 313 312 313 313 312 314 317 317 315 313 307 301 297 294 290 284 279 280 284 288 288 288 289 292 293 290 285 279 274 271 272 272 275 279 272
273 277 283 288 293 299 305 311 317 322 327 332 333 334 335 336 336 336 335 335 335 335 334 334 335 334 330 327 325 325 325 324 323 323 322 321 319 317 315 312 312 313 313 312 314 316 315 313 311 306 301 300 297 293 293 293 291 289 290 291 291 291 293 296 291 281 275 271 266 264 268 275 278 264
268 275 283 292 301 308 315 321 327 334 339 340 339 337 336 335 336 338 340 341 340 339 338 338 337 334 331 328 326 326 326 325 324 322 322 322 320 318 317 315 314 314 313 313 314 314 311 309 306 301 297 296 292 290 294 301 302 298 297 297 295 292 289 287 282 274 271 271 269 267 268 269 263 246
266 278 291 301 310 317 324 333 341 346 348 345 341 339 336 334 334 337 340 343 343 344 345 344 341 336 332 329 327 326 327 327 326 324 323 322 321 319 317 315 314 313 312 311 311 311 309 305 301 298 295 292 289 290 297 304 304 300 297 293 288 284 279 275 275 274 272 272 273 271 263 250 238 235
270 286 299 310 321 330 340 350 356 357 356 354 351 346 343 340 338 337 337 341 346 349 351 349 344 339 333 328 326 326 328 329 328 326 325 323 321 319 317 315 313 312 309 307 307 308 307 304 302 302 299 295 293 295 299 300 295 289 285 278 274 271 264 259 263 267 266 270 279 276 247 227 223 229
271 288 306 321 337 350 360 7 9 8 5 4 1 356 351 347 343 340 338 340 346 350 351 349 346 342 336 331 329 328 327 328 328 328 327 324 322 319 317 314 312 309 307 305 305 305 306 306 306 305 301 296 293 293 293 288 283 283 285 282 275 268 258 251 255 258 258 268 286 288 238 225 229 233
267 296 319 341 1 13 17 18 17 13 10 7 4 1 358 353 347 341 337 339 346 350 350 349 348 345 341 336 332 328 326 326 327 327 327 325 322 320 317 314 312 310 308 306 306 307 310 310 306 301 295 289 284 282 281 279 279 285 292 290 276 264 255 252 256 257 256 265 283 286 247 242 242 240
274 301 335 11 25 28 26 20 15 9 7 6 4 3 2 359 354 347 342 344 349 352 352 352 351 349 345 340 335 331 328 327 327 328 328 328 326 324 321 319 316 313 310 308 309 311 313 310 304 296 288 280 275 272 272 274 278 286 294 292 275 260 256 258 259 255 252 257 265 265 260 265 256 248
279 303 5 31 34 31 24 15 6 2 2 4 4 3 1 1 0 358 354 353 353 353 353 354 352 350 347 343 338 334 332 330 330 331 332 332 331 328 325 321 318 315 313 311 312 313 312 307 301 293 283 276 271 270 272 275 280 286 290 287 273 258 256 258 255 247 243 236 206 153 178 254 289 267
283 321 22 34 32 25 14 4 358 357 359 1 2 1 359 358 358 359 356 353 353 353 353 353 352 351 349 346 341 339 336 334 334 333 334 334 333 329 326 322 319 317 316 315 315 316 314 308 300 290 283 280 279 278 280 282 283 282 281 276 267 259 252 239 222 217 222 209 160 124 131 156 71 66
295 338 19 28 23 11 359 354 354 355 356 357 358 359 359 358 358 357 355 353 353 354 352 351 351 351 350 348 346 343 340 337 335 334 334 335 333 330 329 326 322 319 319 319 318 318 318 314 304 293 289 288 288 287 285 283 276 269 265 263 259 258 250 215 200 199 196 173 140 119 122 132 108 121